ISTSAT-1

Satellite information

Favourite Embed

Satellite Type and Status

PAYLOADIN ORBIT

Key statistics

Satellite ISTSAT-1 at a glance.

Uptime

427

Days in orbit

Revolutions

≈ 15.1

Per day

Orbit

LEO

Low Earth Orbit

Inclination

62.0

Latest

Satellite identification and parameters

Extended collection of information and parameters for ISTSAT-1.

Object identification

Identified? True

Debris? False

Object name: ISTSAT-1

International designator: 2024-128D

Object number (NORAD): 60238

Object ID (CCSDS): 60238

Country: PORTUGAL (POR)

Current information (Y/N): Y

RCS size: SMALL

Orbital parameters

Period: 95.589 minutes

Inclination: 61.9893 deg

SMA: 6925.215 km

Apoapsis: 585.091 km

Periapsis: 509.069 km

RAAN: 118.1467 deg

Eccentricy: 0.00548881

Argument of periapsis: 76.732 deg

Mean anomaly: 283.9886 deg

Mean motion: 15.0644361 rev/day

Mean motion (dot): 0.0000762 rev/day2

B* drag term: 0.00051075744 1/REarth

Two-line elements (TLE)

Creation date: Sept. 8, 2025, 6:18 p.m.

Reference frame: TEME

Reference center: EARTH

Epoch: Sept. 8, 2025, 2:44 p.m. UTC

TLE line 0: 0 ISTSAT-1

TLE line 1: 1 60238U 24128D 25251.61426037 .00007620 00000-0 51076-3 0 9997

TLE line 2: 2 60238 61.9893 118.1467 0054888 76.7320 283.9886 15.06443610 63961

Live tracking on map

Real-time ground track for satellite ISTSAT-1.

In-orbit conjunctions

There are no conjunctions computed for ISTSAT-1, at the moment. Check back to stay up to date, as we update our databases every day.

Go to all conjunctions

Associated space launch

Maiden Flight of the Ariane 62 launch vehicle, carrying ten cubesats, two deployers, five experiments, and two reentry capsules.

ISTSAT-1 was lifted into orbit during the mission ‘Ariane 62 | Maiden Flight’, on board a Ariane 62 space rocket.

The launch took place on July 9, 2024, 7 p.m. from Ariane Launch Area 4.

For more information about the launch, click the button.

Launch to space Ariane 62 | Maiden Flight
Ariane 62 | Maiden Flight

Agency: European Space Agency

Status: Launch Successful

Launch date: July 9, 2024, 7 p.m. UTC

Rocket: Ariane 62

Launch pad: Ariane Launch Area 4

Location: Guiana Space Centre, French Guiana

...

Latest news about this satellite

News about space launch
ESA 2024 Highlights: flight of the Ariane 6

In 2024, ESA continued to drive Europe’s innovation and excellence in space, equipping the continent with advanced tools and knowledge to address global and local challenges. The year saw pioneering missions, cutting-edge satellites and the pivotal restor...

News about space launch
Europe lifts off from its launcher crisis

For the European space industry, the deafening rumble of the ascending rocket was a sigh of relief. On the afternoon of July 9, an Ariane 6 lifted off on a […]

News about space launch
Ariane 6 joint update report, 16 September 2024

The Ariane 6 Launcher Task Force consists of top management of ESA, as the overall Ariane 6 procuring entity and launch system architect, of the French space agency CNES as the launch base prime contractor, of ArianeGroup as the launcher system prime cont...


Newsletter sign-up

Weekly statistics, charts and insights to help you stay on top of the space industry.